AirNav   Air Wisconsin pilot careers
 
 536 users online  

2MS2 Highland Community Hospital Heliport
Picayune, Mississippi, USA

GOING TO PICAYUNE?


FAA INFORMATION EFFECTIVE 29 MARCH 2018

Location

FAA Identifier: 2MS2
Lat/Long: 30-32-57.3100N / 089-39-57.1800W
30-32.955167N / 089-39.953000W
30.5492528 / -89.6658833
(estimated)
Elevation: 50 ft. / 15 m (estimated)
Variation: 01W (2020)
From city: 2 miles N of PICAYUNE, MS
Time zone: UTC -5 (UTC -6 during Standard Time)
Zip code: 39466

Heliport Operations

Heliport use: Private use. Permission required prior to landing
Activation date: 03/2017
Control tower: no
ARTCC: HOUSTON CENTER
FSS: GREENWOOD FLIGHT SERVICE STATION
Attendance: 
Wind indicator: yes
Segmented circle: no

Heliport Communications

WX AWOS-3PT at MJD (4 nm S): 119.075 (601-798-4136)
WX ASOS at ASD (15 nm SW): 132.475 (985-643-7263)
WX AWOS-3PT at HSA (15 nm SE): 118.375 (228-466-9320)
WX AWOS-3PT at BXA (19 nm NW): 118.025 (985-732-6224)

Nearby radio navigation aids

VOR radial/distance  VOR name  Freq  Var
PCUr097/3.4PICAYUNE VOR/DME112.2005E
GPTr284/31.6GULFPORT VORTAC109.0002E
HMUr087/(38.9)HAMMOND VOR109.6000E

 
NDB name  Hdg/Dist  Freq  Var  ID
HANCO300/12.422102WHS .... ...
BOGALUSA153/22.435300WGVB --. ...- -...

Heliport Services

Runway Information

Helipad H1

Dimensions: 54 x 54 ft. / 16 x 16 m
Surface: concrete
Runway edge lights: PERI
Latitude: 30-32.955167N
Longitude: 089-39.953000W
Elevation: 50.0 ft.
Traffic pattern: leftleft

Heliport Ownership and Management from official FAA records

Ownership: Privately-owned
Owner: HIGHLAND COMMUNITY HOSPITAL
130 HIGHLAND PKWY
PICAYUNE, MS 39466
Phone 601 798 4711
Manager: JOE GIBSON
6051 US HWY 40
HATTIESBURG, MS 39401
Phone 601 798 4711

Instrument Procedures

There are no published instrument procedures at 2MS2.

Some nearby airports with instrument procedures:

KMJD - Picayune Municipal Airport (4 nm S)
KASD - Slidell Airport (15 nm SW)
KHSA - Stennis International Airport (15 nm SE)
M13 - Poplarville-Pearl River County Airport (16 nm NE)
KBXA - George R Carr Memorial Air Field (19 nm NW)
 
Loc | Ops | Rwys | IFR | FBO | Links
Com | Nav | Svcs | Stats | Notes

AirNav Hotels Sweepstakes
 
Aerial photo
No photo
 
Airport distance calculator
Flying to Highland Community Hospital Heliport? Find the distance to fly.

From to 2MS2

Sunrise and sunset
Times for 20-Apr-2018
 Local
(UTC-5)
 Zulu
(UTC)
Morning civil twilight06:0211:02
Sunrise06:2711:27
Sunset19:2800:28
Evening civil twilight19:5300:53

Current date and time
Zulu (UTC)  20-Apr-2018 10:49:08
Local (UTC-5)  20-Apr-2018 05:49:08
 
METAR
KHSA 
16nm SE 
200154Z 36007KT 10SM SKC 17/07 A3019
KASD 
19nm S 
200953Z AUTO 02004KT 10SM CLR 08/05 A3022 RMK AO2 SLP232 T00830050
KBXA 
19nm NW 
201035Z AUTO 03004KT 10SM CLR 08/05 A3025 RMK AO2 T00800050
KGPT 
31nm E 
200953Z AUTO 01007KT 10SM CLR 10/04 A3021 RMK AO2 SLP229 T01000044
TAF
KASD 
19nm S 
200520Z 2006/2106 34005KT P6SM SKC FM201500 05007KT P6SM SKC FM202200 11005KT P6SM FEW250
NOTAMs
Click for the latest NOTAMs
NOTAMs are issued by the DoD/FAA and will open in a separate window not controlled by AirNav.

 

 
 

Would you like to see your business listed on this page?

 If your business provides an interesting product or service to pilots, flight crews, aircraft, or users of the Highland Community Hospital Heliport, you should consider listing it here.  To start the listing process, click on the button below
 
Add a business
 

Other Pages about Highland Community Hospital Heliport

Update a link
 
Copyright © AirNav, LLC. All rights reserved. Privacy Policy  Contact